| time (UTC) | temp F | wind direction | speed knots | gust knots | rain 1hr in | rain 24hr in | rain mn in | humidity % | barometer mb |
| 20260507101010 | 48 | 290 | 4.3 | 11.3 | 0.00 | 0.27 | 0.03 | 85 | 1005.7 |
| 20260507100003 | 48 | 283 | 2.6 | 8.7 | 0.00 | 0.27 | 0.03 | 86 | 1005.5 |
| 20260507095403 | 48 | 264 | 4.3 | 9.6 | 0.00 | 0.27 | 0.03 | 86 | 1005.8 |
| 20260507094610 | 48 | 262 | 3.5 | 9.6 | 0.00 | 0.27 | 0.03 | 86 | 1005.9 |
| 20260507093709 | 48 | 255 | 5.2 | 10.4 | 0.00 | 0.27 | 0.03 | 86 | 1005.7 |
| 20260507092704 | 48 | 260 | 2.6 | 7.0 | 0.00 | 0.27 | 0.03 | 85 | 1005.7 |
| 20260507091909 | 48 | 257 | 4.3 | 8.7 | 0.00 | 0.27 | 0.03 | 83 | 1005.9 |
| 20260507090903 | 48 | 267 | 5.2 | 13.9 | 0.00 | 0.27 | 0.03 | 82 | 1006.1 |
| 20260507090110 | 48 | 267 | 5.2 | 13.9 | 0.00 | 0.27 | 0.03 | 81 | 1005.9 |
| 20260507085403 | 48 | 269 | 6.1 | 13.9 | 0.01 | 0.27 | 0.03 | 81 | 1005.6 |
| 20260507084504 | 48 | 273 | 5.2 | 11.3 | 0.01 | 0.27 | 0.03 | 80 | 1005.4 |
| 20260507083604 | 48 | 276 | 6.1 | 12.2 | 0.01 | 0.27 | 0.03 | 80 | 1005.6 |
| 20260507082809 | 49 | 287 | 6.1 | 12.2 | 0.01 | 0.27 | 0.03 | 81 | 1005.1 |
| 20260507081804 | 49 | 279 | 5.2 | 13.0 | 0.01 | 0.27 | 0.03 | 84 | 1005.4 |
| 20260507080903 | 49 | 273 | 5.2 | 9.6 | 0.01 | 0.27 | 0.03 | 85 | 1005.4 |
| 20260507080003 | 50 | 276 | 5.2 | 11.3 | 0.01 | 0.27 | 0.03 | 85 | 1005.7 |
| 20260507075404 | 50 | 282 | 4.3 | 9.6 | 0.00 | 0.26 | 0.02 | 85 | 1005.5 |
| 20260507074504 | 50 | 278 | 4.3 | 15.6 | 0.00 | 0.26 | 0.02 | 84 | 1005.8 |
| 20260507073604 | 50 | 279 | 3.5 | 9.6 | 0.00 | 0.26 | 0.02 | 85 | 1005.4 |
| 20260507072704 | 50 | 271 | 4.3 | 8.7 | 0.00 | 0.26 | 0.02 | 85 | 1005.2 |
| 20260507071910 | 50 | 270 | 5.2 | 10.4 | 0.00 | 0.26 | 0.02 | 85 | 1005.1 |
| 20260507071010 | 50 | 270 | 5.2 | 10.4 | 0.00 | 0.26 | 0.02 | 85 | 1005.2 |
| 20260507070008 | 50 | 265 | 5.2 | 10.4 | 0.00 | 0.26 | 0.02 | 85 | 1004.9 |
| 20260507065404 | 50 | 263 | 5.2 | 10.4 | 0.00 | 0.26 | 0.02 | 85 | 1004.8 |
| 20260507064503 | 50 | 265 | 3.5 | 7.8 | 0.00 | 0.26 | 0.02 | 84 | 1004.9 |
| 20260507063709 | 50 | 273 | 4.3 | 8.7 | 0.00 | 0.26 | 0.02 | 83 | 1004.9 |
| 20260507062704 | 50 | 268 | 4.3 | 8.7 | 0.00 | 0.26 | 0.02 | 82 | 1004.6 |
| 20260507061909 | 51 | 271 | 5.2 | 9.6 | 0.00 | 0.26 | 0.02 | 82 | 1004.6 |
| 20260507060903 | 51 | 274 | 6.1 | 15.6 | 0.00 | 0.26 | 0.02 | 82 | 1004.7 |
| 20260507060110 | 51 | 273 | 7.0 | 15.6 | 0.00 | 0.26 | 0.02 | 83 | 1004.8 |
| 20260507055404 | 51 | 268 | 7.8 | 14.8 | 0.00 | 0.26 | 0.02 | 83 | 1005.0 |
| 20260507054610 | 51 | 266 | 7.8 | 15.6 | 0.00 | 0.26 | 0.02 | 85 | 1005.2 |
| 20260507053709 | 52 | 270 | 6.1 | 13.0 | 0.00 | 0.26 | 0.02 | 86 | 1004.9 |
| 20260507052704 | 52 | 273 | 7.0 | 13.0 | 0.00 | 0.26 | 0.02 | 86 | 1004.9 |
| 20260507051803 | 52 | 261 | 6.1 | 11.3 | 0.00 | 0.26 | 0.02 | 89 | 1005.3 |
| 20260507050903 | 53 | 276 | 5.2 | 10.4 | 0.01 | 0.26 | 0.02 | 90 | 1005.0 |
| 20260507050110 | 53 | 268 | 6.1 | 12.2 | 0.02 | 0.26 | 0.02 | 90 | 1005.2 |
| 20260507045403 | 53 | 273 | 5.2 | 11.3 | 0.02 | 0.26 | 0.02 | 90 | 1005.2 |
| 20260507044503 | 54 | 294 | 5.2 | 13.9 | 0.02 | 0.26 | 0.02 | 90 | 1005.0 |
| 20260507043603 | 55 | 284 | 4.3 | 12.2 | 0.02 | 0.26 | 0.02 | 91 | 1004.9 |
| 20260507042703 | 55 | 268 | 7.8 | 13.9 | 0.02 | 0.26 | 0.02 | 90 | 1004.8 |
| 20260507041803 | 56 | 261 | 7.0 | 12.2 | 0.02 | 0.26 | 0.02 | 90 | 1005.0 |
| 20260507040903 | 57 | 264 | 6.1 | 15.6 | 0.01 | 0.25 | 0.01 | 90 | 1005.0 |
| 20260507040004 | 57 | 255 | 3.5 | 8.7 | 0.00 | 0.24 | 0.00 | 92 | 1004.9 |
| 20260507035404 | 57 | 248 | 3.5 | 7.8 | 0.00 | 0.24 | 0.24 | 92 | 1004.6 |
| 20260507034504 | 57 | 245 | 4.3 | 8.7 | 0.00 | 0.24 | 0.24 | 92 | 1004.5 |
| 20260507033603 | 58 | 250 | 5.2 | 10.4 | 0.00 | 0.24 | 0.24 | 93 | 1004.5 |
| 20260507032703 | 58 | 253 | 4.3 | 10.4 | 0.00 | 0.24 | 0.24 | 94 | 1004.3 |
| 20260507031804 | 58 | 219 | 3.5 | 10.4 | 0.00 | 0.24 | 0.24 | 94 | 1004.0 |
| 20260507030903 | 58 | 203 | 4.3 | 9.6 | 0.00 | 0.24 | 0.24 | 93 | 1003.8 |
| 20260507030003 | 58 | 190 | 5.2 | 10.4 | 0.00 | 0.24 | 0.24 | 93 | 1003.7 |
| 20260507025404 | 58 | 192 | 4.3 | 15.6 | 0.00 | 0.24 | 0.24 | 93 | 1003.8 |
| 20260507024503 | 58 | 187 | 5.2 | 13.0 | 0.00 | 0.24 | 0.24 | 93 | 1003.8 |
| 20260507023604 | 58 | 185 | 5.2 | 16.5 | 0.00 | 0.24 | 0.24 | 93 | 1003.9 |
| 20260507022703 | 58 | 185 | 5.2 | 10.4 | 0.00 | 0.24 | 0.24 | 93 | 1003.8 |
| 20260507021803 | 58 | 182 | 6.1 | 11.3 | 0.00 | 0.24 | 0.24 | 93 | 1003.7 |
| 20260507020904 | 58 | 178 | 5.2 | 11.3 | 0.00 | 0.24 | 0.24 | 93 | 1003.6 |
| 20260507020003 | 58 | 179 | 5.2 | 14.8 | 0.00 | 0.24 | 0.24 | 93 | 1003.9 |
| 20260507015403 | 58 | 184 | 5.2 | 14.8 | 0.00 | 0.24 | 0.24 | 93 | 1003.9 |
| 20260507014503 | 58 | 183 | 5.2 | 10.4 | 0.00 | 0.24 | 0.24 | 93 | 1004.0 |
| 20260507013604 | 58 | 180 | 5.2 | 16.5 | 0.00 | 0.24 | 0.24 | 93 | 1003.9 |
| 20260507012703 | 58 | 182 | 5.2 | 13.9 | 0.00 | 0.24 | 0.24 | 93 | 1004.0 |
| 20260507011803 | 58 | 180 | 5.2 | 13.9 | 0.00 | 0.24 | 0.24 | 93 | 1004.0 |
| 20260507011009 | 58 | 183 | 5.2 | 13.9 | 0.00 | 0.24 | 0.24 | 93 | 1004.0 |
| 20260507010003 | 58 | 180 | 7.0 | 13.0 | 0.00 | 0.24 | 0.24 | 93 | 1004.2 |
| 20260507005509 | 58 | 174 | 6.1 | 16.5 | 0.00 | 0.24 | 0.24 | 93 | 1004.0 |
| 20260507004504 | 58 | 174 | 7.0 | 14.8 | 0.00 | 0.24 | 0.24 | 93 | 1004.1 |
| 20260507003604 | 58 | 175 | 7.0 | 14.8 | 0.00 | 0.24 | 0.24 | 93 | 1004.0 |
| 20260507002703 | 58 | 176 | 7.8 | 14.8 | 0.01 | 0.24 | 0.24 | 93 | 1004.0 |
| 20260507001909 | 58 | 175 | 7.0 | 14.8 | 0.03 | 0.24 | 0.24 | 94 | 1003.9 |
| 20260507000903 | 58 | 185 | 5.2 | 13.0 | 0.05 | 0.24 | 0.24 | 94 | 1003.8 |
| 20260507000003 | 58 | 168 | 5.2 | 12.2 | 0.06 | 0.24 | 0.24 | 94 | 1003.7 |
| 20260506235404 | 58 | 169 | 5.2 | 11.3 | 0.06 | 0.24 | 0.24 | 94 | 1003.8 |
| 20260506234503 | 58 | 172 | 5.2 | 11.3 | 0.07 | 0.24 | 0.24 | 93 | 1003.7 |
| 20260506233604 | 58 | 172 | 6.1 | 13.0 | 0.08 | 0.24 | 0.24 | 93 | 1003.7 |
| 20260506232703 | 58 | 171 | 6.1 | 13.9 | 0.08 | 0.23 | 0.23 | 93 | 1003.8 |
| 20260506231804 | 58 | 171 | 5.2 | 11.3 | 0.06 | 0.20 | 0.20 | 93 | 1003.8 |
| 20260506230903 | 59 | 170 | 5.2 | 14.8 | 0.05 | 0.19 | 0.19 | 93 | 1003.9 |
| 20260506230004 | 59 | 174 | 6.1 | 11.3 | 0.04 | 0.18 | 0.18 | 93 | 1004.2 |
| 20260506225408 | 59 | 172 | 6.1 | 12.2 | 0.04 | 0.18 | 0.18 | 92 | 1004.1 |
| 20260506224609 | 59 | 172 | 6.1 | 13.0 | 0.03 | 0.17 | 0.17 | 92 | 1004.1 |
| 20260506223603 | 59 | 170 | 5.2 | 13.0 | 0.02 | 0.16 | 0.16 | 92 | 1004.2 |
| 20260506222703 | 59 | 166 | 5.2 | 11.3 | 0.02 | 0.15 | 0.15 | 92 | 1004.2 |
| 20260506221804 | 59 | 172 | 5.2 | 14.8 | 0.01 | 0.14 | 0.14 | 92 | 1004.2 |
| 20260506221010 | 59 | 172 | 6.1 | 15.6 | 0.02 | 0.14 | 0.14 | 92 | 1004.3 |
| 20260506220003 | 59 | 164 | 5.2 | 12.2 | 0.03 | 0.14 | 0.14 | 92 | 1004.4 |
| 20260506215403 | 59 | 163 | 3.5 | 9.6 | 0.04 | 0.14 | 0.14 | 92 | 1004.4 |
| 20260506214503 | 59 | 159 | 4.3 | 12.2 | 0.05 | 0.14 | 0.14 | 92 | 1004.4 |
| 20260506213604 | 59 | 159 | 3.5 | 9.6 | 0.06 | 0.14 | 0.14 | 92 | 1004.6 |
| 20260506212809 | 59 | 166 | 3.5 | 9.6 | 0.06 | 0.13 | 0.13 | 92 | 1004.8 |
| 20260506211803 | 59 | 168 | 4.3 | 11.3 | 0.08 | 0.13 | 0.13 | 91 | 1004.8 |
| 20260506210903 | 60 | 160 | 4.3 | 10.4 | 0.08 | 0.12 | 0.12 | 91 | 1005.0 |
| 20260506210003 | 60 | 166 | 5.2 | 12.2 | 0.08 | 0.11 | 0.11 | 90 | 1004.9 |
| 20260506205509 | 60 | 164 | 6.1 | 13.0 | 0.07 | 0.10 | 0.10 | 90 | 1005.0 |
| 20260506204503 | 60 | 169 | 5.2 | 12.2 | 0.07 | 0.09 | 0.09 | 89 | 1005.1 |
| 20260506203603 | 61 | 159 | 3.5 | 9.6 | 0.06 | 0.08 | 0.08 | 89 | 1005.0 |
| 20260506202704 | 61 | 167 | 5.2 | 9.6 | 0.06 | 0.07 | 0.07 | 88 | 1004.9 |
| 20260506201804 | 62 | 175 | 5.2 | 9.6 | 0.05 | 0.05 | 0.05 | 86 | 1005.0 |
| 20260506200904 | 62 | 177 | 6.1 | 14.8 | 0.04 | 0.04 | 0.04 | 85 | 1004.9 |
| 20260506200004 | 62 | 174 | 5.2 | 14.8 | 0.03 | 0.03 | 0.03 | 84 | 1004.9 |
| 20260506195403 | 62 | 172 | 4.3 | 12.2 | 0.03 | 0.03 | 0.03 | 84 | 1004.9 |
| 20260506194503 | 63 | 171 | 5.2 | 10.4 | 0.02 | 0.02 | 0.02 | 82 | 1004.8 |
| 20260506193603 | 64 | 167 | 5.2 | 16.5 | 0.02 | 0.02 | 0.02 | 81 | 1004.9 |
| 20260506192810 | 64 | 172 | 4.3 | 9.6 | 0.01 | 0.01 | 0.01 | 79 | 1005.0 |
| 20260506191910 | 65 | 174 | 6.1 | 13.0 | 0.01 | 0.01 | 0.01 | 76 | 1005.1 |
| 20260506190904 | 66 | 175 | 7.0 | 16.5 | 0.00 | 0.00 | 0.00 | 72 | 1005.0 |
| 20260506190109 | 68 | 182 | 5.2 | 13.0 | 0.00 | 0.00 | 0.00 | 69 | 1005.0 |
| 20260506185403 | 68 | 194 | 6.1 | 19.1 | 0.00 | 0.00 | 0.00 | 66 | 1005.0 |
| 20260506184503 | 69 | 182 | 6.1 | 22.6 | 0.00 | 0.00 | 0.00 | 65 | 1004.9 |
| 20260506183603 | 69 | 177 | 11.3 | 28.7 | 0.00 | 0.00 | 0.00 | 63 | 1004.9 |
| 20260506182704 | 70 | 178 | 10.4 | 25.2 | 0.00 | 0.00 | 0.00 | 60 | 1005.0 |
| 20260506181804 | 70 | 166 | 7.0 | 14.8 | 0.00 | 0.00 | 0.00 | 61 | 1004.9 |
| 20260506180903 | 71 | 173 | 7.8 | 23.5 | 0.00 | 0.00 | 0.00 | 60 | 1005.0 |
| 20260506180109 | 71 | 175 | 9.6 | 23.5 | 0.00 | 0.00 | 0.00 | 60 | 1005.1 |
| 20260506175404 | 71 | 167 | 8.7 | 20.0 | 0.00 | 0.00 | 0.00 | 60 | 1005.2 |
| 20260506174610 | 72 | 171 | 8.7 | 17.4 | 0.00 | 0.00 | 0.00 | 60 | 1005.3 |
| 20260506173603 | 72 | 164 | 9.6 | 21.7 | 0.00 | 0.00 | 0.00 | 60 | 1005.2 |
| 20260506172703 | 72 | 167 | 8.7 | 18.2 | 0.00 | 0.00 | 0.00 | 59 | 1005.1 |
| 20260506171803 | 72 | 162 | 7.8 | 22.6 | 0.00 | 0.00 | 0.00 | 60 | 1005.3 |
| 20260506170903 | 71 | 160 | 10.4 | 22.6 | 0.00 | 0.00 | 0.00 | 60 | 1005.5 |
| 20260506170109 | 72 | 175 | 7.0 | 16.5 | 0.00 | 0.00 | 0.00 | 60 | 1005.6 |
| 20260506165403 | 71 | 177 | 7.8 | 16.5 | 0.00 | 0.00 | 0.00 | 60 | 1005.7 |
| 20260506164508 | 71 | 181 | 10.4 | 25.2 | 0.00 | 0.00 | 0.00 | 59 | 1005.7 |
| 20260506163603 | 71 | 173 | 10.4 | 23.5 | 0.00 | 0.00 | 0.00 | 59 | 1005.9 |
| 20260506162703 | 71 | 173 | 7.8 | 17.4 | 0.00 | 0.00 | 0.00 | 59 | 1005.9 |
| 20260506161804 | 71 | 166 | 7.8 | 18.2 | 0.00 | 0.00 | 0.00 | 61 | 1006.2 |
| 20260506160904 | 71 | 170 | 7.0 | 13.9 | 0.00 | 0.00 | 0.00 | 62 | 1006.4 |
| 20260506160004 | 70 | 171 | 6.1 | 15.6 | 0.00 | 0.00 | 0.00 | 63 | 1006.5 |
| 20260506155404 | 70 | 171 | 5.2 | 11.3 | 0.00 | 0.00 | 0.00 | 63 | 1006.6 |
| 20260506154503 | 70 | 176 | 7.0 | 18.2 | 0.00 | 0.00 | 0.00 | 63 | 1006.8 |
| 20260506153710 | 70 | 170 | 7.0 | 18.2 | 0.00 | 0.00 | 0.00 | 65 | 1007.1 |
| 20260506152704 | 70 | 166 | 6.1 | 13.9 | 0.00 | 0.00 | 0.00 | 66 | 1007.1 |
| 20260506151804 | 69 | 162 | 7.0 | 14.8 | 0.00 | 0.00 | 0.00 | 66 | 1007.2 |
| 20260506150903 | 69 | 165 | 5.2 | 11.3 | 0.00 | 0.00 | 0.00 | 67 | 1007.2 |
| 20260506150005 | 69 | 172 | 7.0 | 16.5 | 0.00 | 0.00 | 0.00 | 68 | 1007.4 |
| 20260506145509 | 68 | 175 | 8.7 | 16.5 | 0.00 | 0.00 | 0.00 | 67 | 1007.6 |
| 20260506144504 | 68 | 170 | 8.7 | 21.7 | 0.00 | 0.00 | 0.00 | 67 | 1007.3 |
| 20260506143603 | 68 | 169 | 7.0 | 20.0 | 0.00 | 0.00 | 0.00 | 68 | 1007.2 |
| 20260506142704 | 68 | 174 | 8.7 | 17.4 | 0.00 | 0.00 | 0.00 | 70 | 1007.2 |
| 20260506141804 | 67 | 175 | 7.8 | 17.4 | 0.00 | 0.00 | 0.00 | 70 | 1007.0 |
| 20260506140903 | 66 | 175 | 6.1 | 15.6 | 0.00 | 0.00 | 0.00 | 72 | 1007.4 |
| 20260506140003 | 66 | 176 | 7.0 | 15.6 | 0.00 | 0.00 | 0.00 | 72 | 1007.3 |
| 20260506135403 | 66 | 175 | 8.7 | 16.5 | 0.00 | 0.00 | 0.00 | 72 | 1007.4 |
| 20260506134610 | 65 | 170 | 8.7 | 20.9 | 0.00 | 0.00 | 0.00 | 72 | 1007.4 |
| 20260506133603 | 65 | 172 | 7.0 | 18.2 | 0.00 | 0.00 | 0.00 | 74 | 1007.8 |
| 20260506132704 | 64 | 173 | 8.7 | 19.1 | 0.00 | 0.00 | 0.00 | 73 | 1007.9 |
| 20260506131803 | 65 | 172 | 7.0 | 15.6 | 0.00 | 0.00 | 0.00 | 73 | 1007.8 |
| 20260506130903 | 64 | 175 | 7.0 | 13.0 | 0.00 | 0.00 | 0.00 | 74 | 1007.7 |
| 20260506130005 | 64 | 176 | 8.7 | 19.1 | 0.00 | 0.00 | 0.00 | 74 | 1007.8 |
| 20260506125403 | 64 | 167 | 9.6 | 19.1 | 0.00 | 0.00 | 0.00 | 74 | 1007.8 |
| 20260506124504 | 64 | 167 | 8.7 | 16.5 | 0.00 | 0.00 | 0.00 | 74 | 1007.6 |
| 20260506123603 | 64 | 175 | 7.0 | 12.2 | 0.00 | 0.00 | 0.00 | 76 | 1007.8 |
| 20260506122704 | 63 | 175 | 7.0 | 13.9 | 0.00 | 0.00 | 0.00 | 75 | 1008.0 |
| 20260506121804 | 63 | 168 | 8.7 | 22.6 | 0.00 | 0.00 | 0.00 | 75 | 1007.8 |
| 20260506121009 | 62 | 167 | 7.0 | 14.8 | 0.00 | 0.00 | 0.00 | 77 | 1007.8 |
| 20260506120003 | 62 | 166 | 7.0 | 14.8 | 0.00 | 0.00 | 0.00 | 77 | 1008.1 |
| 20260506115403 | 62 | 169 | 7.0 | 12.2 | 0.00 | 0.00 | 0.00 | 77 | 1008.0 |
| 20260506114504 | 62 | 170 | 7.0 | 12.2 | 0.00 | 0.00 | 0.00 | 77 | 1008.1 |
| 20260506113603 | 62 | 179 | 6.1 | 16.5 | 0.00 | 0.00 | 0.00 | 78 | 1008.3 |
| 20260506112704 | 62 | 179 | 4.3 | 13.0 | 0.00 | 0.00 | 0.00 | 78 | 1008.3 |
| 20260506111803 | 61 | 168 | 6.1 | 13.9 | 0.00 | 0.00 | 0.00 | 78 | 1008.2 |
| 20260506110904 | 61 | 174 | 5.2 | 11.3 | 0.00 | 0.00 | 0.00 | 79 | 1008.2 |
| 20260506110004 | 60 | 168 | 6.1 | 13.0 | 0.00 | 0.00 | 0.00 | 79 | 1008.2 |
| 20260506105403 | 60 | 170 | 6.1 | 14.8 | 0.00 | 0.00 | 0.00 | 78 | 1008.3 |
| 20260506104504 | 60 | 171 | 6.1 | 14.8 | 0.00 | 0.00 | 0.00 | 78 | 1008.2 |
| 20260506103603 | 60 | 168 | 6.1 | 12.2 | 0.00 | 0.00 | 0.00 | 78 | 1008.1 |
| 20260506102703 | 60 | 171 | 6.1 | 12.2 | 0.00 | 0.00 | 0.00 | 78 | 1008.2 |
| 20260506101803 | 60 | 162 | 5.2 | 11.3 | 0.00 | 0.00 | 0.00 | 78 | 1008.2 |